GW1549 Weather Reports


time (UTC)temp
C
wind
direction
speed
KPH
gust
KPH
rain 1hr
cm
rain 24hr
cm
rain mn
cm
humidity
%
barometer
mb
20260502183016 12 181 4.8 6.4 0.00 0.00 0.00 48 1010.4
20260502182440 11 235 3.2 4.8 0.00 0.00 0.00 49 1010.4
20260502181833 11 10 1.6 1.6 0.00 0.00 0.00 49 1010.8
20260502181254 12 64 1.6 3.2 0.00 0.00 0.00 48 1010.4
20260502180621 12 287 3.2 3.2 0.00 0.00 0.00 47 1010.8
20260502164244 12 26 3.2 3.2 0.00 0.00 0.00 49 1011.1
20260502163631 12 74 4.8 6.4 0.00 0.00 0.00 47 1011.1
20260502163053 12 32 1.6 3.2 0.00 0.00 0.00 53 1011.5
20260502162442 11 343 3.2 3.2 0.00 0.00 0.00 54 1011.5
20260502161816 11 11 1.6 4.8 0.00 0.00 0.00 52 1011.5
20260502161221 11 56 1.6 1.6 0.00 0.00 0.00 53 1011.5
20260502160623 11 12 3.2 4.8 0.00 0.00 0.00 51 1011.5
20260502151833 10 263 12.9 12.9 0.00 0.00 0.00 55 1011.8
20260502151241 11 226 3.2 3.2 0.00 0.00 0.00 54 1011.8
20260502150650 10 6 1.6 3.2 0.00 0.00 0.00 56 1011.8
20260502130631 5 18 0.0 1.6 0.00 0.00 0.00 97 1011.8
20260502123635 3 317 0.0 0.0 0.00 0.00 0.00 99 1011.8
20260502122440 2 15 0.0 0.0 0.00 0.00 0.00 99 1011.8
20260502121222 2 60 0.0 0.0 0.00 0.00 0.00 99 1011.5
20260502120644 1 11 0.0 0.0 0.00 0.00 0.00 99 1011.5
20260502115451 1 358 0.0 0.0 0.00 0.00 0.00 99 1011.8
20260502114813 0 12 0.0 0.0 0.00 0.00 0.00 99 1011.5
20260502114232 0 0 0.0 0.0 0.00 0.00 0.00 99 1011.5
20260502113611 0 35 0.0 0.0 0.00 0.00 0.00 99 1011.8
20260502113039 0 13 0.0 0.0 0.00 0.00 0.00 99 1011.8
20260502112437 0 26 0.0 0.0 0.00 0.00 0.00 99 1011.8
20260502111828 0 26 0.0 0.0 0.00 0.00 0.00 99 1011.8
20260502111226 0 29 0.0 0.0 0.00 0.00 0.00 99 1011.5
20260502110017 0 19 0.0 0.0 0.00 0.00 0.00 99 1011.5
20260502105418 0 21 0.0 0.0 0.00 0.00 0.00 99 1011.5
20260502104829 0 14 0.0 0.0 0.00 0.00 0.00 99 1011.5
20260502104217 0 12 0.0 0.0 0.00 0.00 0.00 99 1011.5
20260502103635 0 13 0.0 0.0 0.00 0.00 0.00 99 1011.8
20260502103043 0 13 0.0 0.0 0.00 0.00 0.00 99 1011.5
20260502102419 0 12 0.0 0.0 0.00 0.00 0.00 99 1011.5
20260502101846 0 3 0.0 0.0 0.00 0.00 0.00 99 1011.5
20260502100630 0 18 0.0 0.0 0.00 0.00 0.00 99 1011.5
20260502091252 0 8 0.0 0.0 0.00 0.00 0.00 99 1011.8
20260502090624 0 19 0.0 0.0 0.00 0.00 0.00 99 1011.5
20260502071224 0 19 0.0 0.0 0.00 0.00 0.00 98 1010.8
20260502070652 0 15 0.0 0.0 0.00 0.00 0.00 98 1011.1
20260502070035 0 19 0.0 0.0 0.00 0.00 0.00 98 1011.1
20260502063651 1 10 0.0 0.0 0.00 0.00 0.00 98 1011.5
20260502063042 1 6 0.0 0.0 0.00 0.00 0.00 98 1011.5
20260502061814 1 8 0.0 0.0 0.00 0.00 0.00 98 1011.8
20260502061249 1 17 0.0 0.0 0.00 0.00 0.00 97 1011.8
20260502060622 1 14 0.0 0.0 0.00 0.00 0.00 97 1011.8
20260502060047 1 17 0.0 0.0 0.00 0.00 0.00 97 1011.8
20260502055448 1 7 0.0 0.0 0.00 0.00 0.00 97 1011.8
20260502054820 1 15 0.0 0.0 0.00 0.00 0.00 97 1011.8
20260502054250 1 26 0.0 0.0 0.00 0.00 0.00 97 1011.8
20260502053021 1 41 0.0 0.0 0.00 0.00 0.00 97 1011.8
20260502052415 2 12 0.0 0.0 0.00 0.00 0.00 97 1011.8
20260502051826 2 14 3.2 3.2 0.00 0.00 0.00 97 1011.8
20260502051220 2 15 0.0 0.0 0.00 0.00 0.00 96 1011.5
20260502050628 2 7 0.0 0.0 0.00 0.00 0.00 96 1011.8
20260502050039 2 10 0.0 0.0 0.00 0.00 0.00 96 1011.8
20260502045433 2 0 0.0 0.0 0.00 0.00 0.00 96 1011.8
20260502044838 2 14 0.0 0.0 0.00 0.00 0.00 96 1012.1
20260502043629 2 347 0.0 0.0 0.00 0.00 0.00 95 1012.1
20260502043043 2 8 0.0 0.0 0.00 0.00 0.00 95 1012.1
20260502042435 2 14 0.0 0.0 0.00 0.00 0.00 95 1011.8
20260502041810 2 14 0.0 0.0 0.00 0.00 0.00 95 1011.8
20260502041217 2 12 0.0 0.0 0.00 0.00 0.00 94 1011.8
20260502040649 3 21 0.0 0.0 0.00 0.00 0.00 94 1011.8
20260502040019 2 12 0.0 0.0 0.00 0.00 0.00 94 1011.8
20260502035442 2 17 0.0 0.0 0.00 0.00 0.00 93 1011.5
20260502034810 3 16 0.0 0.0 0.00 0.00 0.00 93 1011.8
20260502034246 3 16 0.0 0.0 0.00 0.00 0.00 92 1011.8
20260502033649 3 13 0.0 0.0 0.00 0.00 0.00 92 1011.8
20260502033012 3 20 0.0 0.0 0.00 0.00 0.00 92 1011.8
20260502032426 3 23 0.0 0.0 0.00 0.00 0.00 91 1011.5
20260502031841 3 21 0.0 0.0 0.00 0.00 0.00 91 1011.8
20260502031213 4 33 0.0 0.0 0.00 0.00 0.00 90 1011.8
20260502030616 4 333 0.0 0.0 0.00 0.00 0.00 90 1011.8
20260502030046 4 10 0.0 0.0 0.00 0.00 0.00 89 1011.8
20260502025414 4 11 0.0 0.0 0.00 0.00 0.00 89 1012.1
20260502024827 5 356 0.0 0.0 0.00 0.00 0.00 89 1011.8
20260502024219 5 358 0.0 0.0 0.00 0.00 0.00 88 1012.1
20260502023624 5 4 0.0 0.0 0.00 0.00 0.00 88 1011.8
20260502023047 5 350 0.0 0.0 0.00 0.00 0.00 88 1011.8
20260502022427 5 359 0.0 0.0 0.00 0.00 0.00 88 1011.5
20260502021812 5 11 0.0 0.0 0.00 0.00 0.00 88 1011.5
20260502021234 5 2 0.0 0.0 0.00 0.00 0.00 87 1011.1
20260502020614 5 15 0.0 0.0 0.00 0.00 0.00 87 1011.1
20260502020036 5 19 0.0 0.0 0.00 0.00 0.00 86 1011.1
20260502015431 5 33 0.0 0.0 0.00 0.00 0.00 85 1010.8
20260502014842 6 34 0.0 0.0 0.00 0.00 0.00 84 1010.8
20260502014227 6 27 0.0 0.0 0.00 0.00 0.00 85 1011.1
20260502013620 6 31 0.0 1.6 0.00 0.00 0.00 85 1010.8
20260502013036 6 24 0.0 0.0 0.00 0.00 0.00 85 1010.8
20260502012450 6 33 0.0 0.0 0.00 0.00 0.00 84 1010.8
20260502011841 6 11 0.0 0.0 0.00 0.00 0.00 83 1010.8
20260502011224 6 351 0.0 0.0 0.00 0.00 0.00 82 1010.4
20260502010625 7 18 0.0 0.0 0.00 0.00 0.00 80 1010.4
20260502010053 7 15 0.0 0.0 0.00 0.00 0.00 80 1010.4
20260502005446 7 11 0.0 0.0 0.00 0.00 0.00 80 1010.1
20260502004843 7 11 0.0 0.0 0.00 0.00 0.00 79 1010.1
20260502004227 7 54 1.6 1.6 0.00 0.00 0.00 79 1009.8
20260502003649 8 35 0.0 0.0 0.00 0.00 0.00 78 1009.8
20260502002449 8 25 0.0 0.0 0.00 0.00 0.00 76 1009.8
20260502001832 8 353 4.8 4.8 0.00 0.00 0.00 74 1009.8
20260502001246 8 66 1.6 3.2 0.00 0.00 0.00 74 1009.8
20260502000031 9 56 0.0 0.0 0.00 0.00 0.00 72 1009.4
20260501235453 9 45 1.6 1.6 0.00 0.00 0.00 72 1009.4
20260501234840 9 337 6.4 9.7 0.00 0.00 0.00 71 1009.1
20260501234253 10 327 4.8 4.8 0.00 0.00 0.00 71 1009.1
20260501233644 10 24 0.0 1.6 0.00 0.00 0.00 70 1009.1
20260501233024 10 55 3.2 4.8 0.00 0.00 0.00 69 1008.8
20260501232442 10 271 1.6 3.2 0.00 0.00 0.00 70 1008.8
20260501231817 10 316 3.2 3.2 0.00 0.00 0.00 71 1008.4
20260501231255 11 252 1.6 1.6 0.00 0.00 0.00 70 1008.8
20260501230650 11 189 4.8 6.4 0.00 0.00 0.00 68 1008.8
20260501230036 11 53 1.6 3.2 0.00 0.00 0.00 66 1008.8
20260501225415 11 17 3.2 9.7 0.00 0.00 0.00 69 1008.8
20260501224827 11 9 1.6 3.2 0.00 0.00 0.00 69 1008.4
20260501224233 11 35 3.2 4.8 0.00 0.00 0.00 70 1008.4
20260501223617 11 17 1.6 3.2 0.00 0.00 0.00 71 1008.1
20260501223053 11 22 0.0 0.0 0.00 0.00 0.00 73 1008.4
20260501222451 11 338 0.0 1.6 0.00 0.00 0.00 74 1008.1
20260501221839 11 19 3.2 3.2 0.00 0.00 0.00 74 1008.1
20260501221246 11 105 1.6 1.6 0.00 0.00 0.00 74 1008.1
20260501220645 11 91 3.2 3.2 0.00 0.00 0.00 75 1008.1
20260501220021 11 73 1.6 3.2 0.00 0.00 0.00 74 1007.7
20260501215415 11 0 0.0 1.6 0.00 0.00 0.00 73 1008.1
20260501214238 11 358 6.4 11.3 0.00 0.00 0.00 72 1008.1
20260501213041 13 1 3.2 3.2 0.00 0.00 0.00 71 1008.1
20260501211829 12 10 3.2 4.8 0.00 0.00 0.00 69 1007.7
20260501211210 12 342 1.6 3.2 0.00 0.00 0.00 69 1007.7
20260501210617 12 68 4.8 6.4 0.00 0.00 0.00 69 1007.7
20260501210030 12 302 4.8 6.4 0.00 0.00 0.00 71 1007.7
20260501205421 12 11 3.2 4.8 0.00 0.00 0.00 74 1007.7
20260501204849 12 223 3.2 3.2 0.00 0.00 0.00 77 1007.4
20260501203622 12 319 8.0 12.9 0.00 0.00 0.00 73 1007.4
20260501202444 12 47 1.6 1.6 0.00 0.00 0.00 78 1007.7
20260501201809 11 345 0.0 0.0 0.00 0.00 0.00 80 1007.4
20260501201239 11 20 0.0 1.6 0.00 0.00 0.00 80 1007.7
20260501200048 11 302 4.8 6.4 0.00 0.00 0.00 80 1007.7
20260501194853 11 16 6.4 9.7 0.00 0.00 0.00 78 1007.7
20260501194230 11 294 4.8 9.7 0.00 0.00 0.00 79 1007.7
20260501193623 11 17 3.2 4.8 0.00 0.00 0.00 79 1007.7
20260501193039 11 300 6.4 9.7 0.00 0.00 0.00 81 1007.4
20260501192423 11 17 0.0 0.0 0.00 0.00 0.00 81 1007.7
20260501191236 11 339 3.2 3.2 0.00 0.00 0.00 80 1008.1
20260501190646 11 321 3.2 3.2 0.00 0.00 0.00 79 1007.7
20260501190012 11 259 8.0 12.9 0.00 0.00 0.00 79 1007.7
20260501185428 12 281 3.2 4.8 0.00 0.00 0.00 76 1007.7
20260501184841 12 20 4.8 6.4 0.00 0.00 0.00 74 1007.4
20260501184223 12 7 1.6 3.2 0.00 0.00 0.00 74 1007.4
20260501183648 12 332 1.6 1.6 0.00 0.00 0.00 73 1007.1